Location: ???? ????
(31.3316°N, 45.4208°E)
Time: 02:50:22
(UTC+00:00)

Daily predictions for brighter satellites

Satellite Brightness Start Highest point End
(mag) Time Altitude Azimuth Time Altitude Azimuth Time Altitude Azimuth
SL-16 R/B 3.8 00:45:08 30° ESE 00:45:08 30° ESE 00:48:15 10° SE
Lacrosse 5 4.1 00:52:11 19° SE 00:52:11 19° SE 00:53:35 10° SE
CZ-4C R/B 4.0 00:51:00 35° NNE 00:53:13 41° NE 01:01:00 10° ESE
Cosmos 2263 Rocket 2.8 01:13:10 10° S 01:18:34 54° ESE 01:23:59 10° NNE
Meteor 1-27 Rocket 4.0 01:19:32 61° NE 01:20:19 69° E 01:26:07 10° SSE
COBE Rocket 4.1 01:32:23 10° SSE 01:37:14 67° ENE 01:38:15 51° NNE
Cosmos 2227 4.4 01:39:34 57° NNW 01:39:34 57° NNW 01:44:16 10° NNE
Cosmos 2242 Rocket 4.0 01:39:22 52° NE 01:40:08 61° E 01:44:33 10° SSE
Cosmos 2034 Rocket 3.9 01:38:31 10° SSW 01:44:41 59° W 01:50:57 10° N
Cosmos 1190 Rocket 3.8 01:53:22 51° NNW 01:54:41 79° WSW 01:59:55 10° S
Cosmos 44 4.1 01:50:48 10° S 01:55:31 49° ESE 02:00:00 10° NE
Cosmos 1484 Rocket 2.7 01:55:00 49° NNE 01:55:59 82° E 01:59:49 10° S
Cosmos 676 Rocket 4.5 01:52:58 19° N 01:56:40 60° ENE 02:01:52 10° SSE
Cosmos 1420 Rocket 4.0 01:59:01 10° SSW 02:04:06 54° WNW 02:09:11 10° N
Cosmos 1954 Rocket 4.3 02:01:23 17° N 02:05:29 69° ENE 02:10:46 10° SSE
Cosmos 1461 3.4 02:03:54 32° N 02:05:44 60° ENE 02:10:09 10° SE
PSLV R/B 3.7 02:03:37 10° N 02:07:43 73° WNW 02:11:48 10° SSW
ALOS 2.6 02:04:49 10° NNE 02:09:28 67° E 02:14:06 10° S
Helios 1A Rocket 4.4 02:06:10 10° NNE 02:09:54 37° E 02:13:38 10° SSE
Cosmos 1943 4.1 02:05:51 10° N 02:11:16 48° ENE 02:16:40 10° SE
Meteor 1-25 Rocket 4.1 02:06:21 10° SSW 02:11:52 69° W 02:17:30 10° N
Cosmos 1092 Rocket 3.9 02:09:00 10° N 02:15:10 87° W 02:21:17 10° S
Okean 1-7 3.2 02:11:15 10° N 02:15:39 73° E 02:19:59 10° SSE
Meteor 1-14 Rocket 4.3 02:12:54 10° S 02:18:48 90° WNW 02:24:48 10° N
Orbus 7S? 2.7 02:19:17 45° WSW 02:20:02 62° NW 02:22:36 10° NNE
PAYLOAD B 4.2 02:16:01 10° NNE 02:21:34 85° ESE 02:27:07 10° SSW
BREEZE-M DEB (TANK) 3.9 02:20:06 15° SSW 02:21:46 37° SE 02:24:18 10° ENE
USA 234 4.4 02:18:13 10° NNE 02:22:54 22° NNW 02:23:59 21° NW
Cosmos 2084 Rocket 3.4 02:24:04 29° NW 02:26:14 70° WSW 02:30:34 10° SSE
SL-16 R/B 3.5 02:27:05 20° WSW 02:27:05 20° WSW 02:30:37 10° SW
Cosmos 1346 Rocket 2.7 02:23:00 10° S 02:26:52 84° E 02:30:44 10° N
Starlink Launch 2 trailer 4.4 02:27:49 18° NNE 02:28:34 20° NE 02:30:30 10° E
FALCON 9 R/B 3.9 02:25:28 24° WNW 02:30:51 77° N 03:01:44 10° E
Lacrosse 5 3.9 02:31:26 12° WSW 02:31:26 12° WSW 02:32:42 10° SW
Cosmos 1452 Rocket 4.0 02:28:00 10° SW 02:32:51 37° WNW 02:37:44 10° N
Cosmos 1603 3.6 02:28:18 11° NNW 02:33:47 76° WSW 02:39:26 10° SSE
Longmarch 3A Rocket 3.2 02:33:54 12° SSW 02:34:56 14° S 02:36:53 10° SE
Hubble Space Telescope 3.7 02:35:37 10° S 02:37:08 12° SSE 02:38:38 10° SE
Cosmos 1140 Rocket 4.1 02:35:38 20° NW 02:38:34 35° W 02:43:17 10° SSW
USA 116 4.1 02:37:13 10° SSE 02:41:24 82° ENE 02:46:11 10° N
CZ-4C R/B 3.5 02:36:15 17° NW 02:41:54 42° WSW 02:49:39 10° S
FALCON 9 DEB 3.6 02:41:12 19° N 02:42:18 30° NE 02:44:25 10° ESE
Meteor 1-19 Rocket 4.5 02:37:03 10° N 02:42:36 72° E 02:48:16 10° SSE
Cosmos 1850 Rocket 4.5 02:40:26 10° N 02:45:44 64° ENE 02:51:01 10° SSE
COSMO-SKYMED 1 2.9 02:43:41 10° S 02:47:50 45° W 02:52:00 10° NNW
Cosmos 2180 Rocket 4.5 02:42:45 10° S 02:48:53 88° E 02:55:03 10° N
Cosmos 1340 3.1 02:46:56 10° SSW 02:50:26 37° W 02:53:56 10° N
NOAA 6 4.0 02:47:10 10° N 02:52:14 63° WNW 02:57:17 10° SSW
SJ-7 4.2 02:48:36 10° N 02:52:36 81° WNW 02:56:34 10° SSW
DELTA 2 R/B(2) 3.3 02:54:28 28° W 02:55:01 42° SSW 02:56:48 10° SE
Cosmos 1500 3.6 02:51:41 10° S 02:55:28 66° E 02:59:16 10° NNE
Cosmos 2221 Rocket 3.5 02:54:34 10° N 02:58:59 87° W 03:03:24 10° S
STARLINK 1055 4.4 02:58:47 10° NNW 03:02:05 37° NE 03:05:22 10° ESE
Cosmos 2263 Rocket 3.5 02:59:16 10° W 03:02:46 17° WNW 03:06:17 10° NNW
Cosmos 1515 3.9 03:00:05 10° N 03:03:55 77° E 03:07:43 10° S
Okean 3 3.6 03:00:20 10° N 03:04:32 80° E 03:08:45 10° S
STARLINK 1022 4.3 03:01:27 10° NNW 03:04:47 39° NE 03:08:07 10° ESE
NOSS 3-2 (A) 3.4 03:00:18 10° SSW 03:05:49 82° ESE 03:11:56 10° NNE
Cosmos 1733 Rocket 2.9 03:02:08 10° S 03:06:26 75° W 03:10:44 10° N
STARLINK 1042 4.1 03:04:48 10° NNW 03:08:11 43° NE 03:11:33 10° ESE
Okean O Rocket 2.3 03:06:23 10° N 03:10:19 32° WNW 03:14:15 10° SW
Cosmos 332 Rocket 3.8 03:06:19 10° SSW 03:11:09 63° WNW 03:16:02 10° N
STARLINK 1056 4.0 03:07:56 10° NNW 03:11:22 46° NE 03:14:47 10° ESE
FALCON 9 DEB 2.0 03:09:09 11° NW 03:11:22 76° SW 03:13:42 10° SE
GPS 2-04 Rocket1 2.9 03:07:32 10° WSW 03:11:29 75° SSE 03:15:36 10° ENE
CZ-4 R/B 4.5 03:11:59 10° NE 03:14:30 16° E 03:17:02 10° SE
STARLINK 1054 3.9 03:11:06 10° NNW 03:14:33 51° NE 03:17:59 10° ESE
Okean 1 4.3 03:11:45 10° NNW 03:15:04 26° W 03:18:24 10° SSW
USA 238 DEB 3.6 03:08:49 10° SW 03:15:25 75° WNW 03:22:14 10° NNE
USA 238 3.6 03:08:56 10° SW 03:15:32 75° WNW 03:22:20 10° NNE
Cosmos 2279 Rocket 4.4 03:11:31 10° SSW 03:17:14 39° W 03:23:00 10° NNW
STARLINK 1062 3.8 03:14:06 10° NW 03:17:35 55° NE 03:21:02 10° SE
GEOS 3 Rocket 4.1 03:13:09 10° S 03:17:56 42° WSW 03:22:46 10° NW
FALCON 9 DEB 2.3 03:16:01 10° NW 03:18:19 54° SW 03:20:37 10° SSE
H-2A R/B 3.5 03:15:25 10° W 03:19:07 53° S 03:38:44 10° ESE
Cosmos 1331 Rocket 4.3 03:15:53 10° SW 03:20:46 44° WNW 03:25:42 10° N
STARLINK 1053 3.6 03:17:27 10° NW 03:20:58 61° NE 03:24:26 10° SE
Cosmos 405 3.9 03:17:58 10° N 03:21:26 52° E 03:24:51 10° SSE
BREEZE-M DEB (TANK) 3.8 03:20:34 10° NNW 03:22:31 23° NE 03:26:16 10° ESE
STARLINK 1061 3.5 03:20:20 10° NW 03:23:51 66° NE 03:27:22 10° SE
Meteor 1-13 Rocket 4.4 03:19:01 10° N 03:24:34 78° E 03:30:12 10° S
Radarsat Rocket 4.4 03:19:09 10° N 03:25:26 57° WNW 03:32:32 10° SSW
